This is the latest recevied weather packets stored in our database for station/object K7PMV-13. If no packets are shown the sender has not sent any weather packets the latest 10 day(s).
| Time | Temp. | Humidity | Pressure | Rain* | Wind** | Luminosity | Snow |
|---|---|---|---|---|---|---|---|
| 1777823359 | 27.78° C | 32% | 1007.3 hPa | 0 mm | - | 294 W/m² | - |
| 1777823037 | 27.78° C | 32% | 1007.2 hPa | 0 mm | - | 271 W/m² | - |
| 1777822720 | 27.78° C | 32% | 1007.2 hPa | 0 mm | - | 285 W/m² | - |
| 1777822394 | 27.22° C | 33% | 1007.2 hPa | 0 mm | - | 269 W/m² | - |
| 1777822069 | 27.22° C | 33% | 1007.1 hPa | 0 mm | - | 302 W/m² | - |
| 1777821745 | 27.22° C | 33% | 1007.1 hPa | 0 mm | - | 285 W/m² | - |
| 1777821415 | 27.22° C | 33% | 1007.2 hPa | 0 mm | - | 339 W/m² | - |
| 1777821100 | 26.67° C | 34% | 1007.1 hPa | 0 mm | - | 288 W/m² | - |
| 1777820784 | 26.67° C | 35% | 1007.2 hPa | 0 mm | - | 243 W/m² | - |
| 1777820469 | 26.11° C | 35% | 1007.4 hPa | 0 mm | - | 209 W/m² | - |
| 1777820154 | 26.11° C | 36% | 1007.4 hPa | 0 mm | - | 197 W/m² | - |
| 1777819830 | 26.11° C | 36% | 1007.4 hPa | 0 mm | - | 209 W/m² | - |
| 1777819515 | 25.56° C | 36% | 1007.3 hPa | 0 mm | - | 190 W/m² | - |
| 1777819196 | 25.56° C | 36% | 1007.2 hPa | 0 mm | - | 176 W/m² | - |
| 1777818865 | 25.56° C | 36% | 1007.3 hPa | 0 mm | - | 153 W/m² | - |
| 1777818551 | 25.56° C | 36% | 1007.3 hPa | 0 mm | - | 137 W/m² | - |
| 1777818233 | 25° C | 36% | 1007.3 hPa | 0 mm | - | 125 W/m² | - |
| 1777817900 | 25° C | 36% | 1007.4 hPa | 0 mm | - | 113 W/m² | - |
| 1777817221 | 25° C | 36% | 1007.3 hPa | 0 mm | - | 102 W/m² | - |
| 1777816906 | 25° C | 36% | 1007.2 hPa | 0 mm | - | 93 W/m² | - |
| 1777816587 | 25° C | 36% | 1007.1 hPa | 0 mm | - | 77 W/m² | - |
| 1777816272 | 25° C | 36% | 1007.2 hPa | 0 mm | - | 72 W/m² | - |
| 1777815940 | 25° C | 36% | 1007 hPa | 0 mm | - | 69 W/m² | - |
| 1777815626 | 25° C | 36% | 1006.9 hPa | 0 mm | - | 62 W/m² | - |
| 1777815306 | 25° C | 35% | 1006.9 hPa | 0 mm | - | 49 W/m² | - |
* Rain latest hour (hover to see other rain measurements)
** Current wind speed in m/s (hover to see current wind gust speed)